Marco Polo — C6JZ7 — position and weather

sailwx.info

Track history (hours):
 
Tides and Currents Weather Stations Pressure Air Temp Water Temp Dewpoint Dewpoint Depression Visibility Wind Speed Wind Dir Waves Ship Positions

Marco Polo

Operator: Orient Lines

Last reported at 2017-Aug-20 15:29 UTC. Time now 2017-Aug-20 15:37 UTC.
Position N 53°24' W 003°00'.

Type: Ship. MMSI: 308691456.

Date/timePositionNaut miles runAvg speedWind from/ knotsBaromVisibWave heightAir tempDewpointWater temp
2017-Aug-20 15:29N 53°24' W 003°00'0 0.0
2017-Aug-20 14:59N 53°24' W 003°00'0 0.0
2017-Aug-20 14:29N 53°24' W 003°00'0 0.0
2017-Aug-20 13:59N 53°24' W 003°00'0 0.0
2017-Aug-20 13:29N 53°24' W 003°00'0 0.0
2017-Aug-20 12:59N 53°24' W 003°00'0 0.0
2017-Aug-20 12:29N 53°24' W 003°00'0 0.0
2017-Aug-20 11:59N 53°24' W 003°00'0 0.0
2017-Aug-20 11:29N 53°24' W 003°00'0 0.0
2017-Aug-20 10:53N 53°24' W 003°00'0 0.0
2017-Aug-20 10:29N 53°24' W 003°00'0 0.0
2017-Aug-20 09:59N 53°24' W 003°00'0 0.0
2017-Aug-20 09:26N 53°24' W 003°00'0 0.0
2017-Aug-20 08:59N 53°24' W 003°00'0 0.0
2017-Aug-20 08:29N 53°24' W 003°00'0 0.0
2017-Aug-20 07:59N 53°24' W 003°00'0 0.0
2017-Aug-20 07:30N 53°24' W 003°00'1 1.6
2017-Aug-20 07:00N 53°25' W 003°01'612.3
2017-Aug-20 06:30N 53°30' W 003°06'713.9
2017-Aug-20 06:00N 53°31' W 003°18'510.3
2017-Aug-20 05:30N 53°31' W 003°26'714.8
2017-Aug-20 05:00N 53°31' W 003°39'914.4
2017-Aug-20 04:24N 53°34' W 003°53'512.1
2017-Aug-20 04:00N 53°36' W 003°60'5113.1
2017-Aug-20 00:08N 54°13' W 004°59'214.6
2017-Aug-20 00:01N 54°15' W 005°00'714.7
2017-Aug-19 23:30N 54°22' W 005°04'714.2
2017-Aug-19 23:00N 54°28' W 005°08'714.2
2017-Aug-19 22:31N 54°35' W 005°11'714.5
2017-Aug-19 22:01N 54°42' W 005°15'714.8
2017-Aug-19 21:31N 54°49' W 005°19'815.0
2017-Aug-19 21:00N 54°57' W 005°21'29 1.8
2017-Aug-19 05:24N 55°24' W 005°04'1514.2
2017-Aug-19 04:20N 55°16' W 005°27'514.9
2017-Aug-19 04:00N 55°13' W 005°35'715.5
2017-Aug-19 03:31N 55°13' W 005°48'815.2
2017-Aug-19 03:00N 55°16' W 006°01'815.1
2017-Aug-19 02:30N 55°21' W 006°10'714.4
2017-Aug-19 02:00N 55°25' W 006°21'815.5
2017-Aug-19 01:31N 55°31' W 006°29'714.6
2017-Aug-19 01:00N 55°37' W 006°37'713.5
2017-Aug-19 00:30N 55°42' W 006°45'713.9
2017-Aug-19 00:00N 55°48' W 006°52'100 9.9
2017-Aug-18 13:57N 57°25' W 006°09'0 0.2
2017-Aug-18 13:30N 57°25' W 006°09'0 0.0
2017-Aug-18 11:42N 57°25' W 006°09'0 0.1
2017-Aug-18 11:30N 57°25' W 006°09'0 0.0
2017-Aug-18 09:45N 57°25' W 006°09'0 0.0
2017-Aug-18 09:30N 57°25' W 006°09'0 0.0
2017-Aug-18 08:54N 57°25' W 006°09'0 0.0
2017-Aug-18 08:30N 57°25' W 006°09'0 0.0
2017-Aug-18 07:59N 57°25' W 006°09'0 0.3
2017-Aug-18 07:28N 57°25' W 006°09'146 3.8
2017-Aug-16 16:48N 59°14' W 003°03'414.2
2017-Aug-16 16:30N 59°12' W 002°56'612.4
2017-Aug-16 16:00N 59°07' W 002°48'510.9
2017-Aug-16 15:30N 59°02' W 002°44'611.9
2017-Aug-16 15:00N 59°01' W 002°56'2 3.8
2017-Aug-16 14:30N 59°00' W 002°58'0 0.0
2017-Aug-16 14:00N 59°00' W 002°58'0 0.0
2017-Aug-16 13:30N 59°00' W 002°58'0 0.0
2017-Aug-16 13:00N 59°00' W 002°58'0 0.0
2017-Aug-16 12:30N 59°00' W 002°58'0 0.0
2017-Aug-16 12:00N 59°00' W 002°58'0 0.0
2017-Aug-16 11:30N 59°00' W 002°58'0 0.0
2017-Aug-16 11:00N 59°00' W 002°58'0 0.0
2017-Aug-16 10:30N 59°00' W 002°58'0 0.0
2017-Aug-16 10:00N 59°00' W 002°58'0 0.0
2017-Aug-16 09:30N 59°00' W 002°58'0 0.0
2017-Aug-16 09:00N 59°00' W 002°58'0 0.0
2017-Aug-16 08:30N 59°00' W 002°58'0 0.0
2017-Aug-16 08:00N 59°00' W 002°58'0 0.0
2017-Aug-16 07:30N 59°00' W 002°58'0 0.0
2017-Aug-16 07:00N 59°00' W 002°58'0 0.0
2017-Aug-16 06:30N 59°00' W 002°58'2 4.7
2017-Aug-16 06:00N 59°01' W 002°54'612.2
2017-Aug-16 05:31N 58°60' W 002°43'3 6.1
2017-Aug-16 05:00N 58°58' W 002°38'611.7
2017-Aug-16 04:30N 58°52' W 002°35'713.2
2017-Aug-16 04:01N 58°46' W 002°30'713.9
2017-Aug-16 03:30N 58°40' W 002°25'4314.3
2017-Aug-16 00:29N 57°59' W 001°56'714.9
2017-Aug-16 00:00N 57°53' W 001°51'816.4
2017-Aug-15 23:30N 57°45' W 001°45'816.9
2017-Aug-15 23:00N 57°37' W 001°40'816.4
2017-Aug-15 22:30N 57°29' W 001°40'1016.5
2017-Aug-15 21:55N 57°19' W 001°44'716.3
2017-Aug-15 21:31N 57°13' W 001°47'815.9
2017-Aug-15 21:01N 57°06' W 001°53'2815.3
2017-Aug-15 19:10N 56°39' W 002°12'215.3
2017-Aug-15 19:01N 56°37' W 002°13'815.4
2017-Aug-15 18:31N 56°30' W 002°18'815.3
2017-Aug-15 18:00N 56°23' W 002°23'815.5
2017-Aug-15 17:30N 56°15' W 002°28'815.5
2017-Aug-15 17:00N 56°11' W 002°40'815.7
2017-Aug-15 16:31N 56°07' W 002°52'815.5
2017-Aug-15 16:00N 56°04' W 003°05'510.6
2017-Aug-15 15:30N 56°02' W 003°14'612.1
2017-Aug-15 15:00N 56°00' W 003°24'1 0.1
2017-Aug-15 05:25N 56°00' W 003°23'3 7.1
2017-Aug-15 05:00N 56°01' W 003°18'4 8.1
2017-Aug-15 04:29N 56°03' W 003°11'611.8
2017-Aug-15 04:00N 56°04' W 003°01'4 8.2
2017-Aug-15 03:30N 56°06' W 002°55'510.8
2017-Aug-15 03:00N 56°09' W 002°47'611.0
2017-Aug-15 02:30N 56°12' W 002°39'510.2
2017-Aug-15 02:00N 56°15' W 002°31'5 9.8
2017-Aug-15 01:30N 56°18' W 002°24'5 9.9
2017-Aug-15 01:00N 56°21' W 002°18'5 9.2
2017-Aug-15 00:30N 56°25' W 002°12'5 9.1
2017-Aug-15 00:00N 56°28' W 002°06'5 9.0
2017-Aug-14 23:30N 56°31' W 002°01'29211.5
2017-Aug-13 22:01N 59°57' E 004°34'012.3
2017-Aug-13 22:00N 59°57' E 004°34'612.8
2017-Aug-13 21:30N 60°02' E 004°43'713.4
2017-Aug-13 21:00N 60°06' E 004°53'713.3
2017-Aug-13 20:30N 60°09' E 005°05'510.6
2017-Aug-13 20:00N 60°14' E 005°09'612.5
2017-Aug-13 19:30N 60°20' E 005°11'5 9.8
2017-Aug-13 19:01N 60°24' E 005°17'1 1.9
2017-Aug-13 18:30N 60°24' E 005°19'0 0.0
2017-Aug-13 18:00N 60°24' E 005°19'0 0.0
2017-Aug-13 17:30N 60°24' E 005°19'0 0.0
2017-Aug-13 17:00N 60°24' E 005°19'0 0.0
2017-Aug-13 16:30N 60°24' E 005°19'0 0.0
2017-Aug-13 16:00N 60°24' E 005°19'0 0.0
2017-Aug-13 15:30N 60°24' E 005°19'0 0.0
2017-Aug-13 15:00N 60°24' E 005°19'0 0.0
2017-Aug-13 14:30N 60°24' E 005°19'0 0.0
2017-Aug-13 14:00N 60°24' E 005°19'0 0.0
2017-Aug-13 13:30N 60°24' E 005°19'0 0.0
2017-Aug-13 12:57N 60°24' E 005°19'0 0.0
2017-Aug-13 12:30N 60°24' E 005°19'0 0.0
2017-Aug-13 12:00N 60°24' E 005°19'0 0.0
2017-Aug-13 11:30N 60°24' E 005°19'0 0.0
2017-Aug-13 11:00N 60°24' E 005°19'0 0.0
2017-Aug-13 10:30N 60°24' E 005°19'0 0.0
2017-Aug-13 10:00N 60°24' E 005°19'0 0.0
2017-Aug-13 09:30N 60°24' E 005°19'0 0.0
2017-Aug-13 09:00N 60°24' E 005°19'0 0.0
2017-Aug-13 08:30N 60°24' E 005°19'0 0.0
2017-Aug-13 08:00N 60°24' E 005°19'1 2.2
2017-Aug-13 07:30N 60°24' E 005°16'611.2
2017-Aug-13 07:00N 60°25' E 005°05'815.2
2017-Aug-13 06:30N 60°31' E 004°57'816.3
2017-Aug-13 06:00N 60°39' E 004°51'816.0
2017-Aug-13 05:30N 60°46' E 004°46'713.1
2017-Aug-13 05:00N 60°51' E 004°37'612.3
2017-Aug-13 04:30N 60°55' E 004°28'611.9
2017-Aug-13 04:00N 61°01' E 004°24'612.7
2017-Aug-13 03:30N 61°07' E 004°24'713.0
2017-Aug-13 03:00N 61°14' E 004°24'613.1
2017-Aug-13 02:30N 61°20' E 004°24'613.0
2017-Aug-13 02:00N 61°27' E 004°24'612.1
2017-Aug-13 01:30N 61°33' E 004°24'612.6
2017-Aug-13 01:00N 61°39' E 004°24'713.7
2017-Aug-13 00:30N 61°46' E 004°25'612.9
2017-Aug-13 00:00N 61°52' E 004°29'612.6
2017-Aug-12 23:30N 61°58' E 004°34'712.9
2017-Aug-12 23:00N 62°04' E 004°40'612.8
2017-Aug-12 22:30N 62°09' E 004°47'612.5
2017-Aug-12 22:00N 62°14' E 004°55'611.9
2017-Aug-12 21:30N 62°19' E 005°03'611.7
2017-Aug-12 21:00N 62°23' E 005°13'612.0
2017-Aug-12 20:30N 62°26' E 005°24'713.4
2017-Aug-12 20:00N 62°30' E 005°35'714.7
2017-Aug-12 19:30N 62°28' E 005°50'612.4
2017-Aug-12 19:00N 62°25' E 006°03'612.6
2017-Aug-12 18:30N 62°23' E 006°16'714.4
2017-Aug-12 18:00N 62°25' E 006°30'714.0
2017-Aug-12 17:30N 62°27' E 006°45'612.3
2017-Aug-12 17:00N 62°23' E 006°56'713.1
2017-Aug-12 16:30N 62°17' E 007°01'713.4
2017-Aug-12 16:00N 62°11' E 007°02'510.1
2017-Aug-12 15:30N 62°06' E 007°02'5 9.5
2017-Aug-12 15:00N 62°07' E 007°11'0 0.5
2017-Aug-12 14:30N 62°06' E 007°11'0 0.0
2017-Aug-12 14:00N 62°06' E 007°11'0 0.0
2017-Aug-12 13:30N 62°06' E 007°11'0 0.0
2017-Aug-12 13:00N 62°06' E 007°11'0 0.0
2017-Aug-12 12:30N 62°06' E 007°11'0 0.0
2017-Aug-12 12:00N 62°06' E 007°11'0 0.0
2017-Aug-12 11:30N 62°06' E 007°11'0 0.0
2017-Aug-12 11:00N 62°06' E 007°11'0 0.0
2017-Aug-12 10:30N 62°06' E 007°11'0 0.0
2017-Aug-12 10:00N 62°06' E 007°11'0 0.1
2017-Aug-12 09:30N 62°06' E 007°11'0 0.1
2017-Aug-12 09:00N 62°06' E 007°11'0 0.2
2017-Aug-12 08:30N 62°06' E 007°11'0 0.0
2017-Aug-12 08:00N 62°06' E 007°11'0 0.0
2017-Aug-12 07:30N 62°06' E 007°11'0 0.0
2017-Aug-12 07:00N 62°06' E 007°11'0 0.1
2017-Aug-12 06:30N 62°06' E 007°11'3 6.1
2017-Aug-12 06:00N 62°06' E 007°05'5 9.3
2017-Aug-12 05:30N 62°10' E 006°60'816.0
2017-Aug-12 05:00N 62°18' E 007°01'816.1
2017-Aug-12 04:30N 62°25' E 006°55'815.5
2017-Aug-12 04:00N 62°27' E 006°38'816.2
2017-Aug-12 03:30N 62°24' E 006°22'815.7
2017-Aug-12 03:00N 62°24' E 006°05'612.0
2017-Aug-12 02:30N 62°27' E 005°55'814.9
2017-Aug-12 02:00N 62°32' E 005°43'714.1
2017-Aug-12 01:30N 62°39' E 005°46'713.6
2017-Aug-12 01:00N 62°45' E 005°54'713.6
2017-Aug-12 00:30N 62°50' E 006°04'713.2
2017-Aug-12 00:00N 62°55' E 006°14'713.2
2017-Aug-11 23:30N 62°59' E 006°25'713.6
2017-Aug-11 23:00N 63°04' E 006°36'713.6
2017-Aug-11 22:30N 63°09' E 006°46'714.2
2017-Aug-11 22:00N 63°14' E 006°56'714.4
2017-Aug-11 21:30N 63°19' E 007°07'714.2
2017-Aug-11 21:01N 63°25' E 007°18'714.3
2017-Aug-11 20:31N 63°30' E 007°28'714.3
2017-Aug-11 20:00N 63°35' E 007°39'613.0
2017-Aug-11 19:30N 63°40' E 007°49'612.8
2017-Aug-11 19:00N 63°45' E 007°58'612.6
2017-Aug-11 18:30N 63°50' E 008°07'712.8
2017-Aug-11 18:00N 63°55' E 008°17'713.2
2017-Aug-11 17:30N 63°60' E 008°27'8212.8
2017-Aug-11 11:05N 65°05' E 010°23'414.7
2017-Aug-11 10:49N 65°08' E 010°27'514.5
2017-Aug-11 10:30N 65°12' E 010°32'714.9
2017-Aug-11 10:00N 65°19' E 010°40'714.3
2017-Aug-11 09:30N 65°26' E 010°45'5914.0
2017-Aug-11 05:18N 66°22' E 011°26'515.3
2017-Aug-11 05:00N 66°26' E 011°32'815.3
2017-Aug-11 04:30N 66°33' E 011°43'815.6
2017-Aug-11 04:00N 66°39' E 011°54'816.1
2017-Aug-11 03:30N 66°45' E 012°07'2216.5
2017-Aug-11 02:12N 67°02' E 012°42'316.3
2017-Aug-11 02:00N 67°04' E 012°47'816.3
2017-Aug-11 01:30N 67°11' E 013°01'816.1
2017-Aug-11 01:00N 67°17' E 013°13'815.9
2017-Aug-11 00:30N 67°23' E 013°26'815.8
2017-Aug-11 00:00N 67°30' E 013°39'815.6
2017-Aug-10 23:30N 67°36' E 013°51'815.4
2017-Aug-10 23:00N 67°42' E 014°03'815.1
2017-Aug-10 22:30N 67°48' E 014°15'815.0
2017-Aug-10 22:00N 67°54' E 014°28'714.9
2017-Aug-10 21:30N 67°59' E 014°41'815.5
2017-Aug-10 21:00N 68°04' E 014°57'816.2
2017-Aug-10 20:30N 68°08' E 015°16'816.4
2017-Aug-10 20:00N 68°13' E 015°34'816.4
2017-Aug-10 19:30N 68°18' E 015°50'815.1
2017-Aug-10 19:00N 68°25' E 016°03'612.5
2017-Aug-10 18:30N 68°30' E 016°09'612.0
2017-Aug-10 18:01N 68°34' E 016°22'5 9.4
2017-Aug-10 17:30N 68°36' E 016°33'612.6
2017-Aug-10 17:00N 68°42' E 016°41'815.1
2017-Aug-10 16:30N 68°49' E 016°50'815.9
2017-Aug-10 16:00N 68°55' E 017°02'816.2
2017-Aug-10 15:30N 69°01' E 017°17'  
Track history (hours):
 
Tides and Currents Weather Stations Pressure Air Temp Water Temp Dewpoint Dewpoint Depression Visibility Wind Speed Wind Dir Waves Ship Positions

Marco Polo

Operator: Orient Lines

Last reported at 2017-Aug-20 15:29 UTC. Time now 2017-Aug-20 15:37 UTC.
Position N 53°24' W 003°00'.

Type: Ship. MMSI: 308691456.

Date/timePositionNaut miles runAvg speedWind from/ knotsBaromVisibWave heightAir tempDewpointWater temp
2017-Aug-20 15:29N 53°24' W 003°00'0 0.0
2017-Aug-20 14:59N 53°24' W 003°00'0 0.0
2017-Aug-20 14:29N 53°24' W 003°00'0 0.0
2017-Aug-20 13:59N 53°24' W 003°00'0 0.0
2017-Aug-20 13:29N 53°24' W 003°00'0 0.0
2017-Aug-20 12:59N 53°24' W 003°00'0 0.0
2017-Aug-20 12:29N 53°24' W 003°00'0 0.0
2017-Aug-20 11:59N 53°24' W 003°00'0 0.0
2017-Aug-20 11:29N 53°24' W 003°00'0 0.0
2017-Aug-20 10:53N 53°24' W 003°00'0 0.0
2017-Aug-20 10:29N 53°24' W 003°00'0 0.0
2017-Aug-20 09:59N 53°24' W 003°00'0 0.0
2017-Aug-20 09:26N 53°24' W 003°00'0 0.0
2017-Aug-20 08:59N 53°24' W 003°00'0 0.0
2017-Aug-20 08:29N 53°24' W 003°00'0 0.0
2017-Aug-20 07:59N 53°24' W 003°00'0 0.0
2017-Aug-20 07:30N 53°24' W 003°00'1 1.6
2017-Aug-20 07:00N 53°25' W 003°01'612.3
2017-Aug-20 06:30N 53°30' W 003°06'713.9
2017-Aug-20 06:00N 53°31' W 003°18'510.3
2017-Aug-20 05:30N 53°31' W 003°26'714.8
2017-Aug-20 05:00N 53°31' W 003°39'914.4
2017-Aug-20 04:24N 53°34' W 003°53'512.1
2017-Aug-20 04:00N 53°36' W 003°60'5113.1
2017-Aug-20 00:08N 54°13' W 004°59'214.6
2017-Aug-20 00:01N 54°15' W 005°00'714.7
2017-Aug-19 23:30N 54°22' W 005°04'714.2
2017-Aug-19 23:00N 54°28' W 005°08'714.2
2017-Aug-19 22:31N 54°35' W 005°11'714.5
2017-Aug-19 22:01N 54°42' W 005°15'714.8
2017-Aug-19 21:31N 54°49' W 005°19'815.0
2017-Aug-19 21:00N 54°57' W 005°21'29 1.8
2017-Aug-19 05:24N 55°24' W 005°04'1514.2
2017-Aug-19 04:20N 55°16' W 005°27'514.9
2017-Aug-19 04:00N 55°13' W 005°35'715.5
2017-Aug-19 03:31N 55°13' W 005°48'815.2
2017-Aug-19 03:00N 55°16' W 006°01'815.1
2017-Aug-19 02:30N 55°21' W 006°10'714.4
2017-Aug-19 02:00N 55°25' W 006°21'815.5
2017-Aug-19 01:31N 55°31' W 006°29'714.6
2017-Aug-19 01:00N 55°37' W 006°37'713.5
2017-Aug-19 00:30N 55°42' W 006°45'713.9
2017-Aug-19 00:00N 55°48' W 006°52'100 9.9
2017-Aug-18 13:57N 57°25' W 006°09'0 0.2
2017-Aug-18 13:30N 57°25' W 006°09'0 0.0
2017-Aug-18 11:42N 57°25' W 006°09'0 0.1
2017-Aug-18 11:30N 57°25' W 006°09'0 0.0
2017-Aug-18 09:45N 57°25' W 006°09'0 0.0
2017-Aug-18 09:30N 57°25' W 006°09'0 0.0
2017-Aug-18 08:54N 57°25' W 006°09'0 0.0
2017-Aug-18 08:30N 57°25' W 006°09'0 0.0
2017-Aug-18 07:59N 57°25' W 006°09'0 0.3
2017-Aug-18 07:28N 57°25' W 006°09'146 3.8
2017-Aug-16 16:48N 59°14' W 003°03'414.2
2017-Aug-16 16:30N 59°12' W 002°56'612.4
2017-Aug-16 16:00N 59°07' W 002°48'510.9
2017-Aug-16 15:30N 59°02' W 002°44'611.9
2017-Aug-16 15:00N 59°01' W 002°56'2 3.8
2017-Aug-16 14:30N 59°00' W 002°58'0 0.0
2017-Aug-16 14:00N 59°00' W 002°58'0 0.0
2017-Aug-16 13:30N 59°00' W 002°58'0 0.0
2017-Aug-16 13:00N 59°00' W 002°58'0 0.0
2017-Aug-16 12:30N 59°00' W 002°58'0 0.0
2017-Aug-16 12:00N 59°00' W 002°58'0 0.0
2017-Aug-16 11:30N 59°00' W 002°58'0 0.0
2017-Aug-16 11:00N 59°00' W 002°58'0 0.0
2017-Aug-16 10:30N 59°00' W 002°58'0 0.0
2017-Aug-16 10:00N 59°00' W 002°58'0 0.0
2017-Aug-16 09:30N 59°00' W 002°58'0 0.0
2017-Aug-16 09:00N 59°00' W 002°58'0 0.0
2017-Aug-16 08:30N 59°00' W 002°58'0 0.0
2017-Aug-16 08:00N 59°00' W 002°58'0 0.0
2017-Aug-16 07:30N 59°00' W 002°58'0 0.0
2017-Aug-16 07:00N 59°00' W 002°58'0 0.0
2017-Aug-16 06:30N 59°00' W 002°58'2 4.7
2017-Aug-16 06:00N 59°01' W 002°54'612.2
2017-Aug-16 05:31N 58°60' W 002°43'3 6.1
2017-Aug-16 05:00N 58°58' W 002°38'611.7
2017-Aug-16 04:30N 58°52' W 002°35'713.2
2017-Aug-16 04:01N 58°46' W 002°30'713.9
2017-Aug-16 03:30N 58°40' W 002°25'4314.3
2017-Aug-16 00:29N 57°59' W 001°56'714.9
2017-Aug-16 00:00N 57°53' W 001°51'816.4
2017-Aug-15 23:30N 57°45' W 001°45'816.9
2017-Aug-15 23:00N 57°37' W 001°40'816.4
2017-Aug-15 22:30N 57°29' W 001°40'1016.5
2017-Aug-15 21:55N 57°19' W 001°44'716.3
2017-Aug-15 21:31N 57°13' W 001°47'815.9
2017-Aug-15 21:01N 57°06' W 001°53'2815.3
2017-Aug-15 19:10N 56°39' W 002°12'215.3
2017-Aug-15 19:01N 56°37' W 002°13'815.4
2017-Aug-15 18:31N 56°30' W 002°18'815.3
2017-Aug-15 18:00N 56°23' W 002°23'815.5
2017-Aug-15 17:30N 56°15' W 002°28'815.5
2017-Aug-15 17:00N 56°11' W 002°40'815.7
2017-Aug-15 16:31N 56°07' W 002°52'815.5
2017-Aug-15 16:00N 56°04' W 003°05'510.6
2017-Aug-15 15:30N 56°02' W 003°14'612.1
2017-Aug-15 15:00N 56°00' W 003°24'1 0.1
2017-Aug-15 05:25N 56°00' W 003°23'3 7.1
2017-Aug-15 05:00N 56°01' W 003°18'4 8.1
2017-Aug-15 04:29N 56°03' W 003°11'611.8
2017-Aug-15 04:00N 56°04' W 003°01'4 8.2
2017-Aug-15 03:30N 56°06' W 002°55'510.8
2017-Aug-15 03:00N 56°09' W 002°47'611.0
2017-Aug-15 02:30N 56°12' W 002°39'510.2
2017-Aug-15 02:00N 56°15' W 002°31'5 9.8
2017-Aug-15 01:30N 56°18' W 002°24'5 9.9
2017-Aug-15 01:00N 56°21' W 002°18'5 9.2
2017-Aug-15 00:30N 56°25' W 002°12'5 9.1
2017-Aug-15 00:00N 56°28' W 002°06'5 9.0
2017-Aug-14 23:30N 56°31' W 002°01'29211.5
2017-Aug-13 22:01N 59°57' E 004°34'012.3
2017-Aug-13 22:00N 59°57' E 004°34'612.8
2017-Aug-13 21:30N 60°02' E 004°43'713.4
2017-Aug-13 21:00N 60°06' E 004°53'713.3
2017-Aug-13 20:30N 60°09' E 005°05'510.6
2017-Aug-13 20:00N 60°14' E 005°09'612.5
2017-Aug-13 19:30N 60°20' E 005°11'5 9.8
2017-Aug-13 19:01N 60°24' E 005°17'1 1.9
2017-Aug-13 18:30N 60°24' E 005°19'0 0.0
2017-Aug-13 18:00N 60°24' E 005°19'0 0.0
2017-Aug-13 17:30N 60°24' E 005°19'0 0.0
2017-Aug-13 17:00N 60°24' E 005°19'0 0.0
2017-Aug-13 16:30N 60°24' E 005°19'0 0.0
2017-Aug-13 16:00N 60°24' E 005°19'0 0.0
2017-Aug-13 15:30N 60°24' E 005°19'0 0.0
2017-Aug-13 15:00N 60°24' E 005°19'0 0.0
2017-Aug-13 14:30N 60°24' E 005°19'0 0.0
2017-Aug-13 14:00N 60°24' E 005°19'0 0.0
2017-Aug-13 13:30N 60°24' E 005°19'0 0.0
2017-Aug-13 12:57N 60°24' E 005°19'0 0.0
2017-Aug-13 12:30N 60°24' E 005°19'0 0.0
2017-Aug-13 12:00N 60°24' E 005°19'0 0.0
2017-Aug-13 11:30N 60°24' E 005°19'0 0.0
2017-Aug-13 11:00N 60°24' E 005°19'0 0.0
2017-Aug-13 10:30N 60°24' E 005°19'0 0.0
2017-Aug-13 10:00N 60°24' E 005°19'0 0.0
2017-Aug-13 09:30N 60°24' E 005°19'0 0.0
2017-Aug-13 09:00N 60°24' E 005°19'0 0.0
2017-Aug-13 08:30N 60°24' E 005°19'0 0.0
2017-Aug-13 08:00N 60°24' E 005°19'1 2.2
2017-Aug-13 07:30N 60°24' E 005°16'611.2
2017-Aug-13 07:00N 60°25' E 005°05'815.2
2017-Aug-13 06:30N 60°31' E 004°57'816.3
2017-Aug-13 06:00N 60°39' E 004°51'816.0
2017-Aug-13 05:30N 60°46' E 004°46'713.1
2017-Aug-13 05:00N 60°51' E 004°37'612.3
2017-Aug-13 04:30N 60°55' E 004°28'611.9
2017-Aug-13 04:00N 61°01' E 004°24'612.7
2017-Aug-13 03:30N 61°07' E 004°24'713.0
2017-Aug-13 03:00N 61°14' E 004°24'613.1
2017-Aug-13 02:30N 61°20' E 004°24'613.0
2017-Aug-13 02:00N 61°27' E 004°24'612.1
2017-Aug-13 01:30N 61°33' E 004°24'612.6
2017-Aug-13 01:00N 61°39' E 004°24'713.7
2017-Aug-13 00:30N 61°46' E 004°25'612.9
2017-Aug-13 00:00N 61°52' E 004°29'612.6
2017-Aug-12 23:30N 61°58' E 004°34'712.9
2017-Aug-12 23:00N 62°04' E 004°40'612.8
2017-Aug-12 22:30N 62°09' E 004°47'612.5
2017-Aug-12 22:00N 62°14' E 004°55'611.9
2017-Aug-12 21:30N 62°19' E 005°03'611.7
2017-Aug-12 21:00N 62°23' E 005°13'612.0
2017-Aug-12 20:30N 62°26' E 005°24'713.4
2017-Aug-12 20:00N 62°30' E 005°35'714.7
2017-Aug-12 19:30N 62°28' E 005°50'612.4
2017-Aug-12 19:00N 62°25' E 006°03'612.6
2017-Aug-12 18:30N 62°23' E 006°16'714.4
2017-Aug-12 18:00N 62°25' E 006°30'714.0
2017-Aug-12 17:30N 62°27' E 006°45'612.3
2017-Aug-12 17:00N 62°23' E 006°56'713.1
2017-Aug-12 16:30N 62°17' E 007°01'713.4
2017-Aug-12 16:00N 62°11' E 007°02'510.1
2017-Aug-12 15:30N 62°06' E 007°02'5 9.5
2017-Aug-12 15:00N 62°07' E 007°11'0 0.5
2017-Aug-12 14:30N 62°06' E 007°11'0 0.0
2017-Aug-12 14:00N 62°06' E 007°11'0 0.0
2017-Aug-12 13:30N 62°06' E 007°11'0 0.0
2017-Aug-12 13:00N 62°06' E 007°11'0 0.0
2017-Aug-12 12:30N 62°06' E 007°11'0 0.0
2017-Aug-12 12:00N 62°06' E 007°11'0 0.0
2017-Aug-12 11:30N 62°06' E 007°11'0 0.0
2017-Aug-12 11:00N 62°06' E 007°11'0 0.0
2017-Aug-12 10:30N 62°06' E 007°11'0 0.0
2017-Aug-12 10:00N 62°06' E 007°11'0 0.1
2017-Aug-12 09:30N 62°06' E 007°11'0 0.1
2017-Aug-12 09:00N 62°06' E 007°11'0 0.2
2017-Aug-12 08:30N 62°06' E 007°11'0 0.0
2017-Aug-12 08:00N 62°06' E 007°11'0 0.0
2017-Aug-12 07:30N 62°06' E 007°11'0 0.0
2017-Aug-12 07:00N 62°06' E 007°11'0 0.1
2017-Aug-12 06:30N 62°06' E 007°11'3 6.1
2017-Aug-12 06:00N 62°06' E 007°05'5 9.3
2017-Aug-12 05:30N 62°10' E 006°60'816.0
2017-Aug-12 05:00N 62°18' E 007°01'816.1
2017-Aug-12 04:30N 62°25' E 006°55'815.5
2017-Aug-12 04:00N 62°27' E 006°38'816.2
2017-Aug-12 03:30N 62°24' E 006°22'815.7
2017-Aug-12 03:00N 62°24' E 006°05'612.0
2017-Aug-12 02:30N 62°27' E 005°55'814.9
2017-Aug-12 02:00N 62°32' E 005°43'714.1
2017-Aug-12 01:30N 62°39' E 005°46'713.6
2017-Aug-12 01:00N 62°45' E 005°54'713.6
2017-Aug-12 00:30N 62°50' E 006°04'713.2
2017-Aug-12 00:00N 62°55' E 006°14'713.2
2017-Aug-11 23:30N 62°59' E 006°25'713.6
2017-Aug-11 23:00N 63°04' E 006°36'713.6
2017-Aug-11 22:30N 63°09' E 006°46'714.2
2017-Aug-11 22:00N 63°14' E 006°56'714.4
2017-Aug-11 21:30N 63°19' E 007°07'714.2
2017-Aug-11 21:01N 63°25' E 007°18'714.3
2017-Aug-11 20:31N 63°30' E 007°28'714.3
2017-Aug-11 20:00N 63°35' E 007°39'613.0
2017-Aug-11 19:30N 63°40' E 007°49'612.8
2017-Aug-11 19:00N 63°45' E 007°58'612.6
2017-Aug-11 18:30N 63°50' E 008°07'712.8
2017-Aug-11 18:00N 63°55' E 008°17'713.2
2017-Aug-11 17:30N 63°60' E 008°27'8212.8
2017-Aug-11 11:05N 65°05' E 010°23'414.7
2017-Aug-11 10:49N 65°08' E 010°27'514.5
2017-Aug-11 10:30N 65°12' E 010°32'714.9
2017-Aug-11 10:00N 65°19' E 010°40'714.3
2017-Aug-11 09:30N 65°26' E 010°45'5914.0
2017-Aug-11 05:18N 66°22' E 011°26'515.3
2017-Aug-11 05:00N 66°26' E 011°32'815.3
2017-Aug-11 04:30N 66°33' E 011°43'815.6
2017-Aug-11 04:00N 66°39' E 011°54'816.1
2017-Aug-11 03:30N 66°45' E 012°07'2216.5
2017-Aug-11 02:12N 67°02' E 012°42'316.3
2017-Aug-11 02:00N 67°04' E 012°47'816.3
2017-Aug-11 01:30N 67°11' E 013°01'816.1
2017-Aug-11 01:00N 67°17' E 013°13'815.9
2017-Aug-11 00:30N 67°23' E 013°26'815.8
2017-Aug-11 00:00N 67°30' E 013°39'815.6
2017-Aug-10 23:30N 67°36' E 013°51'815.4
2017-Aug-10 23:00N 67°42' E 014°03'815.1
2017-Aug-10 22:30N 67°48' E 014°15'815.0
2017-Aug-10 22:00N 67°54' E 014°28'714.9
2017-Aug-10 21:30N 67°59' E 014°41'815.5
2017-Aug-10 21:00N 68°04' E 014°57'816.2
2017-Aug-10 20:30N 68°08' E 015°16'816.4
2017-Aug-10 20:00N 68°13' E 015°34'816.4
2017-Aug-10 19:30N 68°18' E 015°50'815.1
2017-Aug-10 19:00N 68°25' E 016°03'612.5
2017-Aug-10 18:30N 68°30' E 016°09'612.0
2017-Aug-10 18:01N 68°34' E 016°22'5 9.4
2017-Aug-10 17:30N 68°36' E 016°33'612.6
2017-Aug-10 17:00N 68°42' E 016°41'815.1
2017-Aug-10 16:30N 68°49' E 016°50'815.9
2017-Aug-10 16:00N 68°55' E 017°02'816.2
2017-Aug-10 15:30N 69°01' E 017°17'  

Dump ship's entire track history